Regional Weather Roundup
Issued by NWS

Home | Current Version | Previous Version | Graphics & Text | Print | Product List | Glossary On
Versions: 1 2 3 4 5 6 7 8 9 10 11 12 13 14 15 16 17 18 19 20 21 22 23 24 25 26 27 28
000
ASUS45 KBOU 180710
RWRCO

WEATHER ROUNDUP FOR COLORADO
NATIONAL WEATHER SERVICE DENVER/BOULDER CO
1200 AM MST SAT NOV 18 2017

NOTE: "FAIR" INDICATES FEW OR NO CLOUDS BELOW 12000 FEET WITH NO
SIGNIFICANT WEATHER AND/OR OBSTRUCTIONS TO VISIBILITY.

COZ001>005-013-030-031-180800-
...NORTHWEST COLORADO...

CITY           SKY/WX    TMP DP  RH WIND       PRES   REMARKS
CRAIG          FAIR      24  17  74 SW17      30.17R WCI  11
HAYDEN         MOCLDY    23  18  80 W18       30.17R WCI   9
MEEKER         MOCLDY    27  15  61 MISG      30.20R
RABBIT EARS PA CLOUDY    12   9  85 W10       30.00R WCI  -1
STEAMBOAT SPGS CLOUDY    23  20  90 SW9       30.12R WCI  13
WALDEN         CLOUDY    19  14  79 W7        30.06R WCI  10
$$

COZ006>008-011-180800-
...WEST CENTRAL VALLEYS...

CITY           SKY/WX    TMP DP  RH WIND       PRES   REMARKS
GRAND JUNCTION FAIR      31  22  69 NW12      30.21R WCI  22
MONTROSE       FAIR      34  24  67 W15G23    30.21R WCI  24
EAGLE          CLOUDY    29  18  63 W10       30.17R WCI  20
RIFLE          FAIR      31  21  66 W9        30.21R WCI  23
DELTA          FAIR      38  22  51 W14       30.18R
NUCLA          MOCLDY    34  19  55 N5        30.22R WCI  30
$$

COZ017>023-064>068-180800-
...SOUTHWEST COLORADO...

CITY           SKY/WX    TMP DP  RH WIND       PRES   REMARKS
DURANGO        FAIR      34  29  82 SW9       30.02R WCI  27
CORTEZ         FAIR      34  18  52 NW16G23   30.17R WCI  24
PAGOSA SPRINGS CLOUDY    37  27  67 SW7       29.98R
TELLURIDE      CLOUDY    22  18  85 NW14G22   30.17R WCI   9
WOLF CREEK PAS   N/A     18  18 100 MISG      30.04R
$$

COZ009-010-012-014-032>034-037-058>063-180800-
...CENTRAL COLORADO...

CITY           SKY/WX    TMP DP  RH WIND       PRES   REMARKS
ASPEN          CLOUDY    25  15  66 N13G24    30.10R WCI  14
BUENA VISTA    CLOUDY    26  19  77 NW16G32   29.96R WCI  13
COPPER MTN     CLOUDY    12   7  79 MISG      29.96R
BERTHOUD PASS  HVY SNOW   3  -8  60 MISG      29.79R VSB<1/4
COTTONWOOD PAS LGT SNOW  28  21  74 W17G31    29.94S WCI  16
GUNNISON       LGT SNOW  27  24  89 W10       30.07R FOG     WCI  17
KREMMLING      MOCLDY    28  18  64 W6        30.10R WCI  22
LEADVILLE      SNOW      14  10  84 NW9       30.00R VSB 1/2 WCI   2
MONARCH PASS   CLOUDY    14  12  92 MISG      30.03R
SALIDA         CLOUDY    31  27  83 W6        30.02R WCI  25
SUNLIGHT       CLOUDY    10   9  92 MISG      30.13R
WILKERSON PASS CLOUDY    12   9  85 N15G29    29.92R WCI  -4
$$

COZ069>075-180800-
...SAN LUIS VALLEY/SANGRE DE CRISTO MOUNTAINS...

CITY           SKY/WX    TMP DP  RH WIND       PRES   REMARKS
ALAMOSA        LGT SNOW  32  29  88 NW15      29.95R FOG     WCI  22
DEL NORTE      CLOUDY    33  19  55 W16G22    29.95R WCI  23
LA VETA PASS   LGT SNOW  28  25  86 W16G30      N/A  WCI  17
SAGUACHE       FAIR      30  23  74 NW38G51   29.90F WCI  14
$$

COZ035-036-038>040-180800-
...NORTHERN COLORADO FRONT RANGE...

CITY           SKY/WX    TMP DP  RH WIND       PRES   REMARKS
DENVER INTL AP CLOUDY    38  25  59 NW12      29.94R
DMNS CITY PARK   N/A     39  11  32 MISG      29.97R
AURORA         MOCLDY    37  23  57 NW20G28   29.94R
FRONT RANGE AP FAIR      37  31  81 NW10      29.93R
ERIE MUNI ARPT FAIR      37  21  52 NW7       30.01R
BOULDER MUN AP FAIR      37  16  41 NW12G21   29.96R
CENTENNIAL     MOCLDY    37  21  52 NW16G28   29.93R
BROOMFIELD     FAIR      36  18  48 W8G18     29.95R
FORT COLLINS   FAIR      38  16  40 NW25G31   29.97R
LONGMONT       FAIR      40  22  49 NW10G25   29.98R
$$

COZ041-046-047-076>085-087-088-180800-
...PIKES PEAK/PALMER DIVIDE AND SOUTHERN FOOTHILLS...

CITY           SKY/WX    TMP DP  RH WIND       PRES   REMARKS
COLO. SPRINGS  CLOUDY    35  30  82 N16       29.88R WCI  25
A. F. ACADEMY  CLOUDY    32  30  92 N13       29.87R WCI  22
SCHRIEVER AFB  MOCLDY    34  29  80 N17G23    29.88R WCI  24
CHEYENNE MTN   MOCLDY    33  26  73 NW9       29.79R WCI  26
ELLICOTT       NOT AVBL
FALCON         CLOUDY    32  24  73 N17       29.88R WCI  20
FORT CARSON    NOT AVBL
LIMON          FLURRIES  34  30  85 N26G37    29.87R WCI  21
MONUMENT HILL  MOCLDY    28  25  86 N13       29.91R WCI  18
CANON CITY     CLOUDY    41  32  70 SW7       29.85S
WALSENBURG     CLOUDY    34  34 100 N6        29.93R VSB 1   WCI  29
TRINIDAD       CLOUDY    40  34  79 NE23G35   29.88R
$$

COZ042>045-048>051-090-091-180800-
...NORTHEAST COLORADO...

CITY           SKY/WX    TMP DP  RH WIND       PRES   REMARKS
GREELEY ARPT   FAIR      40  20  44 NW26G37   29.94R
AKRON          CLOUDY    35  30  82 N23G32    29.89R WCI  23
BURLINGTON     LGT RAIN  41  37  86 NW24G36   29.83R
WRAY           NOT AVBL
YUMA           CLOUDY    37  32  81 NW18G32   29.86R
STERLING       CLOUDY    37  32  81 N18       29.88R
HOLYOKE        MOCLDY    41  34  75 NW23G35   29.84R
FORT MORGAN    MOCLDY    36  27  72 N17       29.94R
$$

COZ086-089-092>099-180800-
...SOUTHEAST COLORADO...

CITY           SKY/WX    TMP DP  RH WIND       PRES   REMARKS
PUEBLO         LGT RAIN  39  36  89 NW6G17    29.91R
LA JUNTA       LGT RAIN  40  35  83 N25G38    29.88R
LAMAR          CLOUDY    45  32  60 N21G43    29.82R
SPRINGFIELD      N/A     40  30  67 N25G31    29.81R
$$




USA.gov is the U.S. government's official web portal to all federal, state and local government web resources and services.